www.pogodaiklimat.ru

Погода и климат >> Архив погоды >> Россия >> Архангельская область >> Зимнегорский Маяк


ПОГОДА в Зимнегорском Маяке

  • Прогноз погоды в Зимнегорском Маяке
  • Монитор погоды в Зимнегорском Маяке

АРХИВ ПОГОДЫ в Зимнегорском Маяке

Время (UTC), дата Ветер
(напр.,м/с)
 
Видим.   Явления Облачность Т
(С)
Тd
(С)
f
(%)
Тe
(С)
Тes
(С)
Комфортность P
(гПа)
Po
(гПа)
Тmin
(С)
Tmax
(С)
R
(мм)
R24
(мм)
S
(см)
09 11.02 Ю 10-19
{21}
10 км 10/0
[As op]
+0.1 -0.8 94 -8 -8 998.6 989.0
12 11.02 Ю 10-15
{20}
10 км 10/0
[As trans]
+0.2 -0.6 94 -8 -8 999.5 990.0
15 11.02 Ю 10-15
{16}
10 км 10/10 300 м
[St]
+0.3 -0.8 92 -8 -8 1000.8 991.2
18 11.02 Ю 9-13
{16}
200 м 10/10 300 м
[As op]
+0.3 -1.3 89 -8 -8 1001.2 991.6
21 11.02 ЮВ 8-12
{13}
10 км 10/10 600 м
[Sc]
-1.5 -2.3 94 -10 -10 1001.2 991.5
00 12.02 ЮВ 9-13
{15}
10 км 10/10 600 м
[Sc]
-2.0 -2.6 96 -11 -11 999.8 990.2
03 12.02 ЮВ 9-14
{16}
4000 м слаб. ливневой снег {метель} 10/10 300 м
[Cb cap]
-1.4 -1.6 99 -10 -10 998.6 989.0 -2.0 0.2 74
06 12.02 Ю 10-17
{17}
4000 м слаб. ливневой снег {метель} 10/10 300 м
[Cb cap]
-0.5 -0.8 98 -9 -9 998.0 988.4
09 12.02 Ю 10-15
{18}
н/о н/о -0.9 -0.9 100 -10 -10 998.3 988.7
12 12.02 Ю 8-12
{18}
н/о н/о -0.8 -0.8 100 -9 -9 998.5 988.9
15 12.02 Ю 9-15
{15}
н/о н/о -0.8 -0.8 100 -9 -9 998.9 989.3 -0.4
18 12.02 Ю 7-11
{15}
н/о н/о -1.2 -1.2 100 -9 -9 999.1 989.4
21 12.02 СЗ 2-12
{12}
10 км 10/0 600 м
[As op]
-3.4 -4.8 90 -8 -8 999.0 989.8
00 13.02 З 3 10 км 10/0
[As trans]
-4.3 -4.2 100 -10 -10 999.4 989.7
03 13.02 СЗ 3 10 км 10/0
[As trans]
-5.3 -5.3 100 -11 -11 999.8 990.0 -5.3 2 76
06 13.02 З 2 10 км 10/0
[As trans]
-5.2 -5.2 100 -10 -10 1000.4 990.7 -5.7
09 13.02 З 4 н/о н/о -5.8 -5.9 99 -13 -13 1001.7 991.9
12 13.02 З 6 4000 м слаб. ливневой снег 10/10 300 м
[Cb cap]
-5.3 -5.3 100 -13 -13 1002.7 992.9
15 13.02 З 4 10 км {ливн. осадки} 10/10 300 м
[Cb cap]
-5.4 -5.4 100 -12 -12 1003.9 994.1 -4.7 0.0
18 13.02 СЗ 4 10 км {ливн. осадки} 10/10 600 м
[Cb cap]
-5.1 -5.1 100 -12 -12 1005.0 995.2
21 13.02 С 2 10 км 10/10 600 м
[Sc]
-4.6 -4.5 100 -9 -9 1006.6 996.8
00 14.02 С 3 10 км 3/0
[Ac trans]
-5.8 -6.2 97 -12 -12 1008.8 999.0
03 14.02 СВ 4 10 км 8/0
[Ac trans]
-5.7 -6.1 97 -12 -12 1011.3 1001.3 -5.9 0.0 78
06 14.02 С 2 10 км 6/0
[Ac trans Ci fib]
-8.2 -8.8 95 -13 -13 1014.0 1004.0 -8.2
09 14.02 В 3 н/о н/о -5.0 -5.3 98 -11 -11 1015.4 1005.4
12 14.02 Ю 3 20 км 1/1 600 м
[Cb cap]
-4.3 -4.9 96 -10 -10 1014.7 1004.8
15 14.02 Ю 6-10
{10}
4000 м слаб. ливневой снег 10/10 300 м
[Cb cap]
-5.5 -5.9 97 -14 -14 1012.7 1002.8 -4.0 0.0
18 14.02 ЮВ 8-13
{14}
10 км {ливн. осадки} 10/0
[As trans]
-6.2 -7.0 94 -15 -15 1006.8 996.9
21 14.02 ЮВ 12-18
{19}
4000 м слаб. снег {метель} 10/10 300 м
[Frnb Ns]
-7.3 -7.8 96 -18 -18 999.1 989.3
00 15.02 ЮВ 11-18
{19}
4000 м слаб. снег {метель} 10/10
[Frnb Ns]
-7.2 -8.1 93 -18 -18 993.1 983.3
03 15.02 ЮВ 9-13
{19}
4000 м слаб. снег {метель} 10/10 300 м
[Frnb Ns]
-5.3 -6.0 95 -15 -15 988.5 978.9 -7.4 1 75
06 15.02 Ю 5
{13}
4000 м слаб. снег {метель} 10/10 300 м
[Frnb Ns]
-1.9 -1.9 100 -9 -9 986.5 976.9
09 15.02 З 6 н/о н/о -1.2 -1.2 100 -8 -8 986.4 976.9
12 15.02 З 6 4000 м слаб. снег 10/10 300 м
[Frnb Ns]
-1.1 -1.0 100 -8 -8 987.4 977.9
15 15.02 СЗ 6 4000 м слаб. ливневой снег 10/10 300 м
[Cb cap]
-1.2 -1.1 100 -8 -8 990.1 980.6 -1.0 2
18 15.02 СЗ 6-10
{11}
10 км 8/0
[Ac trans]
-2.1 -2.1 100 -10 -10 994.1 984.5
21 15.02 СЗ 8-12
{15}
10 км 1/0
[Ac trans]
-2.6 -2.9 98 -11 -11 998.8 989.1
00 16.02 СЗ 8-13
{15}
10 км 3/0
[Ac trans]
-3.1 -3.2 99 -12 -12 1001.3 991.6
03 16.02 СЗ 3
{13}
10 км 9/9 600 м
[Sc]
-2.9 -3.3 97 -8 -8 1002.8 993.0 -3.1 0.0 78
06 16.02 ЮЗ 3 10 км 10/10 600 м
[Sc]
-2.9 -3.0 99 -8 -8 1002.8 993.1
09 16.02 Ю 4 н/о н/о -3.0 -3.0 100 -9 -9 1001.5 991.8
12 16.02 Ю 5
{10}
10 км 10/0
[As op]
-2.9 -3.3 97 -10 -10 997.8 988.2
15 16.02 ЮВ 9-14
{15}
2000 м снег {метель} 10/6 300 м
[Frnb As op]
-2.8 -2.9 99 -12 -12 991.4 981.8 -2.7 0.3
18 16.02 Ю 12-17
{19}
2000 м снег {метель} 10/10 300 м
[Frnb Ns]
-1.6 -1.8 99 -11 -11 984.7 975.2
21 16.02 ЮЗ 11-14
{21}
2000 м снег {метель} 10/10 300 м
[Frnb Ns]
-1.4 -1.3 100 -11 -11 980.4 971.0
00 17.02 ЮЗ 8-10
{14}
10 км {снег, метель} 6/0
[Ac trans]
-1.4 -1.3 100 -10 -10 977.2 967.8
03 17.02 З 7
{11}
10 км 10/10 600 м
[Sc]
-2.0 -2.0 100 -10 -10 975.5 966.1 -2.9 4 81
06 17.02 СЗ 5 4000 м слаб. снег 10/10 300 м
[Frnb Ns]
-2.1 -2.1 100 -9 -9 975.8 966.4
09 17.02 СЗ 5 н/о н/о -2.3 -2.3 100 -9 -9 978.9 969.4
12 17.02 С 11-14
{14}
4000 м слаб. снег {метель} 10/10 300 м
[Frnb Ns]
-3.1 -3.2 99 -13 -13 984.9 975.3
15 17.02 С 9-20
{23}
10 км позёмок {снег} 3/1 300 м
[St Ci fib]
-4.0 -4.5 96 -13 -13 993.2 983.5 -2.0 1
18 17.02 С 8-17
{23}
20 км позёмок {снег} 6/0
[Ac trans]
-4.2 -6.5 84 -13 -13 999.5 989.7
21 17.02 С 6-17
{17}
2000 м слаб. ливневой снег {метель} 10/10 300 м
[Cb cap]
-5.1 -5.4 98 -13 -13 1004.0 994.2
00 18.02 С 5-15
{19}
10 км позёмок {ливн. осадки} 4/4 600 м
[Sc diur, vesp]
-7.3 -7.8 96 -15 -15 1007.8 997.9
03 18.02 СЗ 5-12
{16}
10 км позёмок 3/0
[Ac trans]
-8.5 -9.6 92 -16 -16 1010.5 1000.5 -8.6 0.6 82
06 18.02 СЗ 6-12
{14}
20 км позёмок 1/0
[Ac trans]
-9.3 -11.3 85 -18 -18 1012.1 1002.1 -9.3

 

Местоположение метеостанции Зимнегорский Маяк (Архангельская область, Россия): широта 65.46 долгота 39.73 высота над уровнем моря 77 м.

В архиве по умолчанию представлена погода в Зимнегорском Маяке за последнюю неделю. Архивные данные за месяц целиком и за предыдущие месяцы, начиная с января 2011 года, Вы можете получить, выбрав интересующий диапазон дат из раскрывающегося списка и нажав кнопку "Ввод!".


*Определитесь, кто Вы:
робот инопланетянин человек

Внимание! Время в таблицах - всемирное. Для получения местного времени необходимо прибавить поправку, которая равна 3 ч.

Смотрите также архив погоды в соседних городах и на ближайших метеорологических станциях:

Погода на Мудьюг Острове (Архангельская область, Россия) (73 км)
Погода в Пялице (Мурманская область, Россия) (81 км)
Погода в Унском Маяке (Архангельская область, Россия) (94 км)
Погода в Кепино (Архангельская область, Россия) (98 км)
Погода в Северодвинске (Архангельская область, Россия) (98 км)
Погода на Чаваньга реке (Мурманская область, Россия) (115 км)
Погода в Архангельске (Архангельская область, Россия) (117 км)
Погода на Сосновец Острове (Мурманская область, Россия) (121 км)
Погода в Жижгине (Архангельская область, Россия) (139 км)
Погода в Холмогорах (Архангельская область, Россия) (166 км)

Пояснения к столбцам:

Ветер - указаны скорость ветра в м/с - средняя за 10 мин, порывы в срок и между сроками (в фигурных скобках) и направление, откуда дует ветер: С - северный, СВ - северо-восточный, В - восточный, ЮВ - юго-восточный, Ю - южный, ЮЗ - юго-западный, З - западный, СЗ - северо-западный.
Видимость - горизонтальная дальность видимости в метрах или километрах. При видимости от 1 до 10 км при отсутствии осадков обычно наблюдается дымка, при ухудшении видимости до 1 км и менее - туман. В сухую погоду видимость может ухудшаться дымом, пылью или мглою.
Явления - указаны атмосферные явления, наблюдавшиеся в срок или в последний час перед сроком; фигурными скобками обозначены явления, наблюдавшиеся между сроками (за 1-3 часа до срока); квадратными скобками обозначены град или гололедные отложения с указанием их диаметра в мм.
Облачность - указаны через наклонную черту общая и нижняя облачность в баллах и высота нижней границы облаков в метрах; квадратными скобками обозначены формы облаков: Ci - перистые, Cs - перисто-слоистые, Cc - перисто-кучевые, Ac - высококучевые, As - высокослоистые, Sc - слоисто-кучевые, Ns - слоисто-дождевые, Cu - кучевые, Cb - кучево-дождевые. Подробнее классификацию облаков см. в Атласе облаков (PDF).
T - Температура воздуха - температура, измеренная на высоте 2 м над землей.
Td - Температура точки росы - температура, при понижении до которой содержащийся в воздухе водяной пар достигнет насыщения.
f - Относительная влажность воздуха - влажноcть воздуха, измеренная на высоте 2 м над землей.
Te - Эффективная температура - температура, которую ощущает одетый по сезону человек в тени. Характеристика душности погоды. При расчете учитывается влияние влажности воздуха и скорости ветра на теплоощущения человека.
Tes - Эффективная температура на солнце - температура, которую ощущает человек, с поправкой на солнечный нагрев. Характеристика знойности погоды. Зависит от высоты солнца над горизонтом, облачности и скорости ветра. Ночью, в пасмурную погоду, а также при ветре 12 м/с и более поправка равна нулю.
P - Атмосферное давление - приведенное к уровню моря атмосферное давление.
Po - Атмосферное давление - измеренное на уровне метеостанции атмосферное давление.
Tmin - Минимальная температура - минимум температуры воздуха на высоте 2 м над землей.
Tmax - Максимальная температура - максимум температуры воздуха на высоте 2 м над землей.
R - Количество осадков - Количество выпавших осадков за период времени, мм. При наведении курсора мыши на число - период времени, за который выпало указанное количество осадков.
R24 - Количество осадков - Количество выпавших осадков за 24 часа, мм.
S - Снежный покров - Высота снежного покрова, см. При наведении курсора мыши на число - состояние снежного покрова и степень покрытия местности в баллах.